JAF2LG EBBR-GMMN

Flight info

Callsign JAF2LG
Flight time 3h 4m
Altitude 33000
Route CIV N872 LESDO DCT KOVIN DCT DUCRA/N0447F370 DCT RESMI DCT DEKOD DCT DISAK DCT ARKIP DCT ARNAV DCT LMG DCT UVELI DCT OSMOB DCT VAVIX DCT NETUK DCT PPN DCT NOLSA DCT ALEPO DCT VASUM DCT BANEV DCT BAN DCT GOTOR DCT KAMPO DCT MONTO DCT MOLIN DCT VJF N10 LINTO UN10 BARIS UB11 TUSOR
Aircraft B738/M-SDE1FGHIJ1RWXYZ/LB1

Departure

Time 2026-05-07 14:43
Airport Brussels Airport (EBBR)

Arrival

Time 2026-05-07 17:48
Airport Mohammed V International Airport (GMMN)
Time Latitude Longitude Altitude Speed Heading
2026-05-07 14:17 50.90100 4.48829 125 ft 0 kts 155°
2026-05-07 14:35 50.90105 4.48826 129 ft 4 kts 155°
2026-05-07 14:35 50.90129 4.48807 123 ft 4 kts 149°
2026-05-07 14:36 50.90151 4.48783 123 ft 4 kts 131°
2026-05-07 14:36 50.90161 4.48752 125 ft 3 kts 71°
2026-05-07 14:36 50.90160 4.48746 125 ft 1 kts 65°
2026-05-07 14:39 50.90163 4.48757 126 ft 4 kts 65°
2026-05-07 14:39 50.90185 4.48833 122 ft 11 kts 65°
2026-05-07 14:39 50.90227 4.48979 123 ft 18 kts 65°
2026-05-07 14:39 50.90283 4.49172 123 ft 20 kts 65°
2026-05-07 14:40 50.90328 4.49331 122 ft 14 kts 69°
2026-05-07 14:40 50.90277 4.49406 125 ft 13 kts 195°
2026-05-07 14:40 50.90173 4.49360 128 ft 19 kts 194°
2026-05-07 14:40 50.90017 4.49296 131 ft 25 kts 194°
2026-05-07 14:41 50.89855 4.49231 139 ft 23 kts 194°
2026-05-07 14:41 50.89704 4.49168 147 ft 21 kts 194°
2026-05-07 14:41 50.89605 4.49172 154 ft 14 kts 142°
2026-05-07 14:41 50.89513 4.49166 158 ft 14 kts 195°
2026-05-07 14:42 50.89401 4.49122 163 ft 19 kts 194°
2026-05-07 14:42 50.89270 4.49069 169 ft 19 kts 194°
2026-05-07 14:42 50.89167 4.49029 175 ft 11 kts 185°
2026-05-07 14:42 50.89148 4.49105 175 ft 11 kts 68°
2026-05-07 14:43 50.89226 4.49435 175 ft 65 kts 70°
2026-05-07 14:43 50.89463 4.50461 175 ft 131 kts 70°
2026-05-07 14:43 50.89839 4.52082 281 ft 174 kts 70°
2026-05-07 14:43 50.90246 4.53910 1031 ft 178 kts 68°
2026-05-07 14:44 50.90808 4.55628 1874 ft 177 kts 59°
2026-05-07 14:44 50.91421 4.57343 2687 ft 182 kts 61°
2026-05-07 14:44 50.92029 4.59105 3528 ft 181 kts 62°
2026-05-07 14:44 50.92651 4.60956 4023 ft 203 kts 62°
2026-05-07 14:45 50.93352 4.63063 4224 ft 228 kts 62°
2026-05-07 14:45 50.94033 4.65470 4455 ft 252 kts 71°
2026-05-07 14:45 50.94557 4.68211 5009 ft 264 kts 73°
2026-05-07 14:45 50.95081 4.71027 5865 ft 268 kts 73°
2026-05-07 14:46 50.95600 4.73904 6672 ft 274 kts 79°
2026-05-07 14:46 50.95498 4.76916 7424 ft 277 kts 110°
2026-05-07 14:46 50.94476 4.79447 8217 ft 278 kts 139°
2026-05-07 14:46 50.92827 4.81031 9081 ft 279 kts 158°
2026-05-07 14:47 50.91016 4.82181 9895 ft 283 kts 160°
2026-05-07 14:47 50.89097 4.82842 10585 ft 285 kts 183°
2026-05-07 14:47 50.87185 4.82058 11307 ft 287 kts 209°
2026-05-07 14:47 50.85685 4.80002 12030 ft 289 kts 237°
2026-05-07 14:48 50.84669 4.77241 12793 ft 292 kts 242°
2026-05-07 14:48 50.83746 4.74280 13173 ft 309 kts 245°
2026-05-07 14:48 50.82855 4.71100 13350 ft 331 kts 246°
2026-05-07 14:48 50.81908 4.67649 13528 ft 352 kts 246°
2026-05-07 14:49 50.80900 4.63998 13687 ft 372 kts 246°
2026-05-07 14:49 50.79828 4.60164 13930 ft 387 kts 246°
2026-05-07 14:49 50.78715 4.56236 14417 ft 393 kts 246°
2026-05-07 14:49 50.77587 4.52291 15143 ft 392 kts 246°
2026-05-07 14:50 50.76468 4.48401 15774 ft 394 kts 245°
2026-05-07 14:50 50.75320 4.44428 16339 ft 398 kts 245°
2026-05-07 14:50 50.74161 4.40428 16905 ft 402 kts 245°
2026-05-07 14:50 50.72992 4.36400 17497 ft 404 kts 245°
2026-05-07 14:51 50.71811 4.32341 18083 ft 407 kts 245°
2026-05-07 14:51 50.70639 4.28314 18614 ft 410 kts 245°
2026-05-07 14:51 50.69443 4.24216 19098 ft 412 kts 245°
2026-05-07 14:51 50.68237 4.20088 19585 ft 415 kts 245°
2026-05-07 14:52 50.67024 4.15943 20066 ft 417 kts 245°
2026-05-07 14:52 50.65803 4.11778 20525 ft 420 kts 245°
2026-05-07 14:52 50.64569 4.07577 21003 ft 423 kts 245°
2026-05-07 14:52 50.63328 4.03356 21447 ft 425 kts 245°
2026-05-07 14:53 50.62079 3.99117 21885 ft 428 kts 245°
2026-05-07 14:53 50.60821 3.94850 22314 ft 430 kts 245°
2026-05-07 14:53 50.59568 3.90615 22723 ft 433 kts 245°
2026-05-07 14:53 50.58188 3.86376 23115 ft 436 kts 236°
2026-05-07 14:54 50.56116 3.82870 23472 ft 440 kts 219°
2026-05-07 14:54 50.53478 3.80384 23844 ft 444 kts 205°
2026-05-07 14:54 50.50634 3.78477 24219 ft 445 kts 204°
2026-05-07 14:54 50.47799 3.76636 24522 ft 447 kts 204°
2026-05-07 14:55 50.44911 3.74743 24832 ft 450 kts 204°
2026-05-07 14:55 50.42024 3.72817 25159 ft 452 kts 204°
2026-05-07 14:55 50.39127 3.70854 25477 ft 453 kts 205°
2026-05-07 14:55 50.36226 3.68881 25784 ft 455 kts 205°
2026-05-07 14:56 50.33307 3.66897 26092 ft 456 kts 205°
2026-05-07 14:56 50.30383 3.64917 26381 ft 458 kts 205°
2026-05-07 14:56 50.27498 3.62966 26748 ft 458 kts 205°
2026-05-07 14:56 50.24581 3.60997 27208 ft 455 kts 205°
2026-05-07 14:57 50.21677 3.59039 27685 ft 453 kts 205°
2026-05-07 14:57 50.18792 3.57095 28119 ft 452 kts 205°
2026-05-07 14:57 50.15904 3.55156 28509 ft 451 kts 205°
2026-05-07 14:57 50.13006 3.53215 28894 ft 451 kts 205°
2026-05-07 14:58 50.11098 3.51939 29141 ft 451 kts 205°
2026-05-07 14:58 50.08216 3.50014 29531 ft 450 kts 205°
2026-05-07 14:58 50.04412 3.47475 30116 ft 448 kts 205°
2026-05-07 14:58 50.01547 3.45565 30462 ft 447 kts 205°
2026-05-07 14:59 49.98686 3.43660 30784 ft 446 kts 205°
2026-05-07 14:59 49.96799 3.42404 30999 ft 446 kts 205°
2026-05-07 14:59 49.93944 3.40507 31337 ft 445 kts 205°
2026-05-07 14:59 49.91103 3.38621 31673 ft 444 kts 205°
2026-05-07 15:00 49.88261 3.36737 31982 ft 443 kts 205°
2026-05-07 15:00 49.85429 3.34861 32316 ft 442 kts 205°
2026-05-07 15:00 49.82600 3.32991 32641 ft 441 kts 205°
2026-05-07 15:00 49.79780 3.31129 32949 ft 440 kts 205°
2026-05-07 15:01 49.76955 3.29260 33066 ft 444 kts 205°
2026-05-07 15:01 49.74112 3.27379 33070 ft 446 kts 205°
2026-05-07 15:01 49.68445 3.23636 33052 ft 441 kts 205°
2026-05-07 15:02 49.62831 3.19938 33071 ft 438 kts 205°
2026-05-07 15:02 49.57218 3.16248 33070 ft 438 kts 205°
2026-05-07 15:03 49.51602 3.12565 33074 ft 439 kts 205°
2026-05-07 15:03 49.46198 3.08386 33068 ft 436 kts 215°
2026-05-07 15:04 49.41163 3.03183 33064 ft 436 kts 216°
2026-05-07 15:04 49.36123 2.97970 33059 ft 437 kts 216°
2026-05-07 15:05 49.31050 2.92805 33051 ft 438 kts 215°
2026-05-07 15:05 49.25957 2.87666 33039 ft 438 kts 215°
2026-05-07 15:06 49.20900 2.82582 33050 ft 438 kts 215°
2026-05-07 15:06 49.15805 2.77468 33044 ft 438 kts 215°
2026-05-07 15:07 49.10705 2.72362 33050 ft 438 kts 215°
2026-05-07 15:07 49.05595 2.67258 33049 ft 438 kts 215°
2026-05-07 15:08 49.00491 2.62170 33053 ft 438 kts 214°
2026-05-07 15:08 48.95423 2.57133 33056 ft 438 kts 214°
2026-05-07 15:09 48.92828 2.54558 33214 ft 440 kts 214°
2026-05-07 15:09 48.90259 2.52012 33561 ft 438 kts 214°
2026-05-07 15:09 48.87749 2.49527 33936 ft 436 kts 214°
2026-05-07 15:09 48.85213 2.47018 34276 ft 433 kts 214°
2026-05-07 15:10 48.82688 2.44523 34511 ft 433 kts 214°
2026-05-07 15:10 48.80158 2.42024 34678 ft 434 kts 214°
2026-05-07 15:10 48.77629 2.39531 34860 ft 435 kts 214°
2026-05-07 15:10 48.75090 2.37029 35053 ft 435 kts 214°
2026-05-07 15:11 48.69967 2.31993 35048 ft 440 kts 214°
2026-05-07 15:11 48.64868 2.26992 35041 ft 437 kts 214°
2026-05-07 15:12 48.59776 2.22011 35039 ft 435 kts 214°
2026-05-07 15:12 48.54270 2.18238 35025 ft 437 kts 197°
2026-05-07 15:13 48.48320 2.16345 35027 ft 437 kts 193°
2026-05-07 15:13 48.42358 2.14506 35034 ft 437 kts 194°
2026-05-07 15:14 48.36430 2.12610 35027 ft 438 kts 194°
2026-05-07 15:14 48.30449 2.10728 35025 ft 441 kts 191°
2026-05-07 15:15 48.24319 2.10684 35025 ft 448 kts 174°
2026-05-07 15:15 48.18140 2.12160 35011 ft 449 kts 174°
2026-05-07 15:16 48.11917 2.13018 35013 ft 446 kts 186°
2026-05-07 15:16 48.05830 2.11879 35019 ft 444 kts 191°
2026-05-07 15:17 47.99696 2.10600 35023 ft 445 kts 190°
2026-05-07 15:17 47.93544 2.09383 35019 ft 445 kts 190°
2026-05-07 15:18 47.87394 2.08200 35021 ft 445 kts 190°
2026-05-07 15:18 47.81258 2.07027 35019 ft 444 kts 190°
2026-05-07 15:19 47.75169 2.05864 35000 ft 443 kts 190°
2026-05-07 15:19 47.69058 2.04697 35005 ft 442 kts 190°
2026-05-07 15:20 47.62997 2.03345 35002 ft 439 kts 197°
2026-05-07 15:20 47.57309 2.00244 34995 ft 435 kts 204°
2026-05-07 15:21 47.51704 1.96901 35005 ft 434 kts 204°
2026-05-07 15:21 47.46090 1.93615 35004 ft 433 kts 204°
2026-05-07 15:22 47.40469 1.90364 35007 ft 433 kts 204°
2026-05-07 15:22 47.34880 1.87145 35088 ft 435 kts 204°
2026-05-07 15:23 47.32053 1.85518 35327 ft 434 kts 204°
2026-05-07 15:23 47.29237 1.83899 35555 ft 434 kts 204°
2026-05-07 15:23 47.26418 1.82280 35740 ft 434 kts 204°
2026-05-07 15:23 47.23638 1.80685 35899 ft 435 kts 204°
2026-05-07 15:24 47.20821 1.79071 36092 ft 435 kts 204°
2026-05-07 15:24 47.17994 1.77463 36284 ft 435 kts 203°
2026-05-07 15:24 47.15171 1.75873 36471 ft 435 kts 203°
2026-05-07 15:24 47.12348 1.74288 36700 ft 434 kts 203°
2026-05-07 15:25 47.09530 1.72708 36882 ft 433 kts 203°
2026-05-07 15:25 47.06701 1.71123 36982 ft 434 kts 203°
2026-05-07 15:25 47.01052 1.67957 36991 ft 437 kts 203°
2026-05-07 15:26 46.95390 1.64791 36985 ft 434 kts 203°
2026-05-07 15:26 46.89759 1.61648 36996 ft 432 kts 203°
2026-05-07 15:27 46.84157 1.58528 36988 ft 430 kts 203°
2026-05-07 15:27 46.78568 1.55422 36990 ft 429 kts 203°
2026-05-07 15:28 46.72983 1.52324 36992 ft 428 kts 203°
2026-05-07 15:28 46.67448 1.49262 36993 ft 428 kts 203°
2026-05-07 15:29 46.61872 1.46183 36992 ft 429 kts 203°
2026-05-07 15:29 46.56272 1.43098 36986 ft 431 kts 203°
2026-05-07 15:30 46.50655 1.40011 36988 ft 431 kts 203°
2026-05-07 15:30 46.45027 1.36924 36977 ft 432 kts 203°
2026-05-07 15:31 46.39434 1.33864 36989 ft 433 kts 203°
2026-05-07 15:31 46.33789 1.30781 36980 ft 433 kts 203°
2026-05-07 15:32 46.28143 1.27706 36980 ft 434 kts 203°
2026-05-07 15:32 46.22495 1.24636 36981 ft 433 kts 203°
2026-05-07 15:33 46.16847 1.21572 36969 ft 433 kts 203°
2026-05-07 15:33 46.11211 1.18522 36983 ft 432 kts 202°
2026-05-07 15:34 46.05621 1.15503 36968 ft 431 kts 202°
2026-05-07 15:34 46.00013 1.12481 36970 ft 429 kts 202°
2026-05-07 15:35 45.94424 1.09474 36966 ft 428 kts 202°
2026-05-07 15:35 45.88836 1.06474 36968 ft 428 kts 202°
2026-05-07 15:36 45.83275 1.03421 36960 ft 427 kts 207°
2026-05-07 15:36 45.78330 0.98841 36970 ft 422 kts 221°
2026-05-07 15:37 45.73875 0.93430 36969 ft 422 kts 221°
2026-05-07 15:37 45.69389 0.88008 36976 ft 422 kts 221°
2026-05-07 15:38 45.64873 0.82599 36978 ft 422 kts 220°
2026-05-07 15:38 45.60354 0.77218 36979 ft 423 kts 220°
2026-05-07 15:39 45.55853 0.71872 36965 ft 423 kts 220°
2026-05-07 15:39 45.51317 0.66496 36968 ft 423 kts 220°
2026-05-07 15:40 45.46781 0.61132 36961 ft 424 kts 220°
2026-05-07 15:40 45.42234 0.55764 36961 ft 424 kts 220°
2026-05-07 15:41 45.37709 0.50435 36948 ft 424 kts 220°
2026-05-07 15:41 45.33146 0.45074 36954 ft 424 kts 220°
2026-05-07 15:42 45.28606 0.39749 36956 ft 425 kts 220°
2026-05-07 15:42 45.24040 0.34406 36957 ft 425 kts 220°
2026-05-07 15:43 45.19467 0.29066 36960 ft 425 kts 220°
2026-05-07 15:43 45.14891 0.23734 36957 ft 425 kts 220°
2026-05-07 15:44 45.10354 0.18457 36956 ft 424 kts 220°
2026-05-07 15:44 45.05790 0.13160 36960 ft 424 kts 220°
2026-05-07 15:45 45.01228 0.07881 36957 ft 424 kts 220°
2026-05-07 15:45 44.96655 0.02600 36947 ft 423 kts 219°
2026-05-07 15:46 44.89839 -0.05255 36952 ft 423 kts 219°
2026-05-07 15:47 44.85277 -0.10500 36949 ft 423 kts 219°
2026-05-07 15:47 44.80711 -0.15739 36951 ft 423 kts 219°
2026-05-07 15:48 44.76146 -0.20966 36950 ft 423 kts 219°
2026-05-07 15:48 44.71575 -0.26190 36950 ft 423 kts 219°
2026-05-07 15:49 44.67776 -0.30524 36948 ft 423 kts 219°
2026-05-07 15:49 44.63133 -0.35607 36943 ft 424 kts 216°
2026-05-07 15:50 44.58264 -0.40291 36942 ft 424 kts 214°
2026-05-07 15:50 44.53374 -0.44934 36941 ft 424 kts 215°
2026-05-07 15:51 44.48534 -0.49564 36945 ft 424 kts 215°
2026-05-07 15:51 44.43667 -0.54233 36938 ft 424 kts 215°
2026-05-07 15:52 44.38783 -0.58912 36932 ft 424 kts 215°
2026-05-07 15:52 44.33904 -0.63577 36935 ft 424 kts 215°
2026-05-07 15:53 44.29021 -0.68234 36934 ft 425 kts 215°
2026-05-07 15:53 44.24150 -0.72805 36930 ft 425 kts 214°
2026-05-07 15:54 44.19211 -0.77331 36929 ft 425 kts 214°
2026-05-07 15:54 44.14263 -0.81856 36919 ft 425 kts 214°
2026-05-07 15:55 44.09317 -0.86383 36924 ft 425 kts 214°
2026-05-07 15:55 44.04367 -0.90911 36920 ft 426 kts 214°
2026-05-07 15:56 43.99411 -0.95436 36910 ft 426 kts 214°
2026-05-07 15:56 43.94492 -0.99920 36915 ft 426 kts 214°
2026-05-07 15:57 43.89531 -1.04432 36914 ft 426 kts 214°
2026-05-07 15:57 43.84581 -1.08924 36913 ft 426 kts 214°
2026-05-07 15:58 43.79611 -1.13426 36909 ft 426 kts 214°
2026-05-07 15:58 43.74630 -1.17928 36910 ft 427 kts 214°
2026-05-07 15:59 43.69643 -1.22427 36914 ft 427 kts 214°
2026-05-07 15:59 43.64661 -1.26912 36909 ft 428 kts 214°
2026-05-07 16:00 43.59691 -1.31378 36906 ft 428 kts 214°
2026-05-07 16:00 43.54679 -1.35873 36909 ft 429 kts 214°
2026-05-07 16:01 43.49665 -1.40360 36925 ft 430 kts 214°
2026-05-07 16:01 43.44672 -1.44819 36909 ft 431 kts 214°
2026-05-07 16:02 43.39632 -1.49312 36906 ft 431 kts 214°
2026-05-07 16:02 43.34604 -1.53787 36914 ft 430 kts 214°
2026-05-07 16:03 43.29560 -1.58265 36919 ft 432 kts 213°
2026-05-07 16:03 43.24120 -1.61622 36912 ft 434 kts 198°
2026-05-07 16:04 43.18153 -1.62988 36908 ft 436 kts 188°
2026-05-07 16:04 43.12119 -1.63903 36922 ft 435 kts 189°
2026-05-07 16:05 43.06123 -1.64846 36907 ft 435 kts 189°
2026-05-07 16:05 43.00097 -1.65829 36903 ft 436 kts 189°
2026-05-07 16:06 42.94056 -1.66823 36908 ft 437 kts 189°
2026-05-07 16:06 42.88014 -1.67814 36914 ft 438 kts 189°
2026-05-07 16:07 42.81970 -1.68803 36912 ft 440 kts 189°
2026-05-07 16:07 42.75887 -1.69812 36912 ft 440 kts 192°
2026-05-07 16:08 42.70088 -1.72274 36910 ft 436 kts 208°
2026-05-07 16:08 42.64702 -1.75969 36911 ft 436 kts 208°
2026-05-07 16:09 42.59263 -1.79685 36904 ft 437 kts 208°
2026-05-07 16:09 42.53814 -1.83347 36907 ft 437 kts 208°
2026-05-07 16:10 42.48352 -1.86995 36909 ft 436 kts 208°
2026-05-07 16:10 42.42906 -1.90627 36908 ft 436 kts 208°
2026-05-07 16:11 42.37502 -1.94231 36902 ft 435 kts 208°
2026-05-07 16:11 42.32062 -1.97857 36909 ft 435 kts 208°
2026-05-07 16:12 42.26636 -2.01472 36911 ft 434 kts 208°
2026-05-07 16:12 42.21238 -2.05053 36915 ft 434 kts 208°
2026-05-07 16:13 42.15798 -2.08653 36903 ft 434 kts 208°
2026-05-07 16:13 42.10391 -2.12226 36911 ft 435 kts 208°
2026-05-07 16:14 42.04954 -2.15813 36915 ft 435 kts 208°
2026-05-07 16:14 41.99507 -2.19399 36937 ft 435 kts 208°
2026-05-07 16:15 41.94057 -2.22982 36918 ft 436 kts 208°
2026-05-07 16:15 41.88608 -2.26556 36940 ft 436 kts 208°
2026-05-07 16:16 41.83147 -2.30132 36936 ft 437 kts 208°
2026-05-07 16:16 41.77706 -2.33687 36932 ft 437 kts 208°
2026-05-07 16:17 41.72232 -2.37258 36936 ft 438 kts 208°
2026-05-07 16:17 41.66749 -2.40827 36936 ft 437 kts 208°
2026-05-07 16:18 41.61264 -2.44392 36934 ft 437 kts 208°
2026-05-07 16:18 41.55823 -2.47922 36925 ft 437 kts 208°
2026-05-07 16:19 41.50355 -2.51462 36923 ft 436 kts 208°
2026-05-07 16:19 41.44883 -2.54986 36928 ft 436 kts 208°
2026-05-07 16:20 41.39441 -2.58482 36920 ft 436 kts 208°
2026-05-07 16:20 41.33970 -2.61992 36937 ft 435 kts 208°
2026-05-07 16:21 41.28803 -2.66123 36932 ft 432 kts 217°
2026-05-07 16:21 41.23885 -2.70730 36930 ft 432 kts 218°
2026-05-07 16:22 41.18981 -2.75310 36926 ft 434 kts 217°
2026-05-07 16:22 41.14017 -2.79889 36926 ft 435 kts 217°
2026-05-07 16:23 41.09026 -2.84461 36923 ft 436 kts 217°
2026-05-07 16:23 41.04024 -2.89028 36928 ft 437 kts 217°
2026-05-07 16:24 40.99006 -2.93602 36927 ft 438 kts 217°
2026-05-07 16:24 40.93985 -2.98171 36931 ft 438 kts 217°
2026-05-07 16:25 40.88953 -3.02742 36936 ft 438 kts 217°
2026-05-07 16:25 40.83922 -3.07302 36928 ft 438 kts 217°
2026-05-07 16:26 40.78916 -3.11833 36932 ft 438 kts 217°
2026-05-07 16:26 40.73884 -3.16379 36938 ft 438 kts 217°
2026-05-07 16:27 40.68849 -3.20919 36930 ft 438 kts 217°
2026-05-07 16:27 40.63840 -3.25427 36937 ft 437 kts 217°
2026-05-07 16:28 40.58812 -3.29944 36938 ft 437 kts 217°
2026-05-07 16:28 40.53780 -3.34456 36939 ft 437 kts 217°
2026-05-07 16:29 40.48741 -3.38965 36937 ft 437 kts 217°
2026-05-07 16:29 40.43742 -3.43432 36935 ft 437 kts 217°
2026-05-07 16:30 40.38703 -3.47925 36932 ft 437 kts 218°
2026-05-07 16:30 40.33662 -3.52412 36911 ft 438 kts 218°
2026-05-07 16:31 40.28621 -3.56890 36908 ft 438 kts 218°
2026-05-07 16:31 40.23565 -3.61375 36915 ft 439 kts 218°
2026-05-07 16:32 40.18529 -3.65834 36899 ft 439 kts 219°
2026-05-07 16:32 40.13463 -3.70313 36909 ft 439 kts 218°
2026-05-07 16:33 40.08391 -3.74784 36900 ft 440 kts 218°
2026-05-07 16:33 40.03309 -3.79252 36893 ft 440 kts 218°
2026-05-07 16:34 39.98225 -3.83715 36873 ft 439 kts 220°
2026-05-07 16:34 39.93194 -3.88125 36886 ft 437 kts 221°
2026-05-07 16:35 39.88157 -3.92534 36887 ft 435 kts 221°
2026-05-07 16:35 39.83132 -3.96925 36884 ft 434 kts 221°
2026-05-07 16:36 39.78122 -4.01298 36881 ft 432 kts 221°
2026-05-07 16:36 39.73161 -4.05617 36866 ft 431 kts 221°
2026-05-07 16:37 39.68183 -4.09950 36880 ft 429 kts 221°
2026-05-07 16:37 39.63236 -4.14255 36882 ft 427 kts 221°
2026-05-07 16:38 39.59134 -4.17820 36882 ft 426 kts 221°
2026-05-07 16:38 39.54206 -4.22098 36883 ft 426 kts 221°
2026-05-07 16:39 39.49265 -4.26379 36857 ft 426 kts 221°
2026-05-07 16:39 39.44346 -4.30632 36871 ft 424 kts 221°
2026-05-07 16:40 39.39470 -4.34842 36873 ft 423 kts 221°
2026-05-07 16:40 39.34572 -4.39064 36880 ft 423 kts 221°
2026-05-07 16:41 39.29700 -4.43256 36863 ft 422 kts 221°
2026-05-07 16:41 39.24823 -4.47447 36861 ft 420 kts 221°
2026-05-07 16:42 39.19953 -4.51619 36863 ft 420 kts 221°
2026-05-07 16:42 39.15070 -4.55782 36866 ft 420 kts 221°
2026-05-07 16:43 39.10223 -4.59910 36857 ft 420 kts 221°
2026-05-07 16:43 39.05350 -4.64056 36862 ft 420 kts 221°
2026-05-07 16:44 39.00452 -4.68154 36846 ft 422 kts 218°
2026-05-07 16:44 38.94955 -4.71171 36858 ft 432 kts 209°
2026-05-07 16:45 38.89334 -4.73831 36852 ft 433 kts 208°
2026-05-07 16:45 38.83679 -4.76525 36850 ft 433 kts 209°
2026-05-07 16:46 38.78030 -4.79242 36820 ft 433 kts 209°
2026-05-07 16:46 38.72383 -4.81966 36835 ft 433 kts 209°
2026-05-07 16:47 38.66741 -4.84686 36841 ft 433 kts 209°
2026-05-07 16:47 38.61096 -4.87403 36846 ft 434 kts 209°
2026-05-07 16:48 38.55444 -4.90118 36831 ft 434 kts 209°
2026-05-07 16:48 38.49834 -4.92806 36832 ft 433 kts 209°
2026-05-07 16:49 38.44203 -4.95502 36831 ft 432 kts 209°
2026-05-07 16:49 38.38573 -4.98192 36848 ft 431 kts 209°
2026-05-07 16:50 38.32959 -5.00871 36846 ft 430 kts 209°
2026-05-07 16:50 38.27353 -5.03540 36847 ft 429 kts 209°
2026-05-07 16:51 38.21798 -5.06182 36845 ft 428 kts 209°
2026-05-07 16:51 38.16209 -5.08836 36853 ft 428 kts 208°
2026-05-07 16:52 38.10630 -5.11480 36857 ft 427 kts 208°
2026-05-07 16:52 38.05054 -5.14119 36845 ft 426 kts 208°
2026-05-07 16:53 37.99482 -5.16752 36841 ft 427 kts 208°
2026-05-07 16:53 37.93919 -5.19376 36856 ft 427 kts 208°
2026-05-07 16:54 37.88383 -5.21983 36852 ft 427 kts 208°
2026-05-07 16:54 37.82806 -5.24605 36822 ft 426 kts 208°
2026-05-07 16:55 37.77250 -5.27212 36848 ft 426 kts 208°
2026-05-07 16:55 37.71696 -5.29815 36850 ft 426 kts 208°
2026-05-07 16:56 37.66134 -5.32418 36853 ft 426 kts 208°
2026-05-07 16:56 37.57822 -5.36299 36837 ft 425 kts 208°
2026-05-07 16:57 37.52272 -5.38885 36852 ft 425 kts 208°
2026-05-07 16:57 37.46723 -5.41467 36860 ft 424 kts 208°
2026-05-07 16:58 37.41189 -5.44038 36864 ft 424 kts 208°
2026-05-07 16:58 37.35660 -5.46602 36864 ft 423 kts 208°
2026-05-07 16:59 37.30175 -5.49142 36858 ft 422 kts 208°
2026-05-07 16:59 37.24659 -5.51693 36882 ft 422 kts 208°
2026-05-07 17:00 37.19145 -5.54239 36885 ft 422 kts 208°
2026-05-07 17:00 37.13622 -5.56785 36884 ft 422 kts 208°
2026-05-07 17:01 37.08141 -5.59308 36874 ft 421 kts 208°
2026-05-07 17:01 37.02633 -5.61838 36880 ft 421 kts 208°
2026-05-07 17:02 36.97125 -5.64365 36887 ft 422 kts 208°
2026-05-07 17:02 36.91600 -5.66897 36883 ft 422 kts 208°
2026-05-07 17:03 36.86127 -5.69400 36916 ft 422 kts 208°
2026-05-07 17:03 36.80611 -5.71919 36905 ft 421 kts 208°
2026-05-07 17:04 36.75102 -5.74430 36904 ft 421 kts 208°
2026-05-07 17:04 36.69631 -5.76921 36907 ft 420 kts 208°
2026-05-07 17:05 36.64144 -5.79415 36906 ft 419 kts 208°
2026-05-07 17:05 36.58671 -5.81899 36885 ft 418 kts 208°
2026-05-07 17:06 36.53214 -5.84373 36910 ft 416 kts 208°
2026-05-07 17:06 36.47770 -5.86837 36916 ft 416 kts 208°
2026-05-07 17:07 36.42322 -5.89300 36913 ft 416 kts 208°
2026-05-07 17:07 36.36904 -5.91745 36914 ft 416 kts 208°
2026-05-07 17:08 36.31456 -5.94201 36911 ft 416 kts 208°
2026-05-07 17:08 36.25970 -5.96597 36922 ft 422 kts 202°
2026-05-07 17:09 36.20027 -5.97510 36931 ft 441 kts 187°
2026-05-07 17:09 36.13911 -5.97140 36936 ft 444 kts 185°
2026-05-07 17:10 36.07735 -5.96736 36921 ft 444 kts 185°
2026-05-07 17:10 36.01556 -5.96383 36937 ft 445 kts 186°
2026-05-07 17:11 35.95352 -5.96050 36933 ft 446 kts 186°
2026-05-07 17:11 35.89139 -5.95716 36926 ft 447 kts 186°
2026-05-07 17:12 35.82904 -5.95233 36889 ft 454 kts 179°
2026-05-07 17:12 35.76747 -5.93162 36916 ft 464 kts 171°
2026-05-07 17:13 35.70519 -5.91716 36921 ft 445 kts 188°
2026-05-07 17:13 35.64346 -5.91762 36896 ft 443 kts 189°
2026-05-07 17:14 35.58177 -5.91801 36903 ft 444 kts 188°
2026-05-07 17:14 35.52005 -5.91777 36911 ft 443 kts 188°
2026-05-07 17:15 35.45824 -5.91735 36922 ft 443 kts 188°
2026-05-07 17:15 35.39686 -5.91699 36913 ft 443 kts 188°
2026-05-07 17:16 35.33517 -5.91826 36901 ft 441 kts 189°
2026-05-07 17:16 35.27369 -5.92036 36922 ft 441 kts 189°
2026-05-07 17:17 35.21257 -5.92229 36919 ft 442 kts 189°
2026-05-07 17:17 35.15119 -5.92520 36912 ft 435 kts 196°
2026-05-07 17:18 35.12208 -5.93347 36927 ft 424 kts 206°
2026-05-07 17:18 35.09510 -5.94701 36887 ft 415 kts 215°
2026-05-07 17:18 35.04444 -5.98061 36917 ft 414 kts 215°
2026-05-07 17:19 34.99348 -6.01390 36915 ft 416 kts 215°
2026-05-07 17:19 34.94262 -6.04676 36912 ft 417 kts 214°
2026-05-07 17:20 34.89125 -6.07981 36917 ft 418 kts 214°
2026-05-07 17:20 34.83984 -6.11284 36915 ft 418 kts 214°
2026-05-07 17:21 34.78840 -6.14583 36909 ft 418 kts 214°
2026-05-07 17:21 34.73692 -6.17882 36908 ft 417 kts 214°
2026-05-07 17:22 34.71125 -6.19525 36610 ft 414 kts 214°
2026-05-07 17:22 34.68578 -6.21152 36285 ft 414 kts 214°
2026-05-07 17:22 34.66027 -6.22785 35929 ft 415 kts 214°
2026-05-07 17:22 34.63460 -6.24426 35582 ft 417 kts 214°
2026-05-07 17:23 34.60922 -6.26047 35245 ft 418 kts 214°
2026-05-07 17:23 34.58343 -6.27694 34907 ft 419 kts 214°
2026-05-07 17:23 34.55758 -6.29342 34548 ft 420 kts 214°
2026-05-07 17:23 34.53166 -6.30993 34218 ft 420 kts 214°
2026-05-07 17:24 34.50570 -6.32644 33882 ft 421 kts 213°
2026-05-07 17:24 34.47848 -6.34060 33495 ft 429 kts 204°
2026-05-07 17:24 34.45008 -6.35087 33147 ft 432 kts 202°
2026-05-07 17:24 34.42104 -6.36046 32780 ft 433 kts 201°
2026-05-07 17:25 34.39193 -6.36994 32421 ft 433 kts 201°
2026-05-07 17:25 34.36285 -6.37957 32055 ft 433 kts 201°
2026-05-07 17:25 34.33375 -6.38944 31653 ft 435 kts 202°
2026-05-07 17:25 34.30456 -6.39952 31244 ft 436 kts 202°
2026-05-07 17:26 34.27540 -6.40969 30866 ft 437 kts 202°
2026-05-07 17:26 34.24616 -6.41992 30461 ft 438 kts 201°
2026-05-07 17:26 34.22673 -6.42673 30140 ft 440 kts 201°
2026-05-07 17:26 34.19725 -6.43706 29612 ft 442 kts 201°
2026-05-07 17:27 34.15805 -6.45076 28894 ft 443 kts 201°
2026-05-07 17:27 34.13802 -6.45775 28530 ft 443 kts 201°
2026-05-07 17:27 34.10838 -6.46808 28012 ft 443 kts 201°
2026-05-07 17:27 34.07880 -6.47838 27498 ft 442 kts 201°
2026-05-07 17:28 34.04946 -6.48859 26999 ft 441 kts 201°
2026-05-07 17:28 34.01988 -6.49888 26481 ft 440 kts 201°
2026-05-07 17:28 33.99064 -6.50923 25962 ft 433 kts 203°
2026-05-07 17:28 33.96403 -6.52470 25266 ft 420 kts 218°
2026-05-07 17:29 33.94193 -6.54722 24653 ft 411 kts 227°
2026-05-07 17:29 33.92177 -6.57129 24040 ft 406 kts 227°
2026-05-07 17:29 33.90181 -6.59526 23300 ft 404 kts 227°
2026-05-07 17:29 33.88216 -6.61875 22484 ft 401 kts 227°
2026-05-07 17:30 33.86233 -6.64228 21713 ft 399 kts 226°
2026-05-07 17:30 33.84260 -6.66553 21095 ft 393 kts 226°
2026-05-07 17:30 33.82313 -6.68835 20541 ft 388 kts 226°
2026-05-07 17:30 33.80385 -6.71090 20018 ft 382 kts 226°
2026-05-07 17:31 33.78479 -6.73316 19492 ft 384 kts 226°
2026-05-07 17:31 33.76553 -6.75565 18963 ft 388 kts 226°
2026-05-07 17:31 33.74610 -6.77834 18458 ft 388 kts 226°
2026-05-07 17:31 33.72702 -6.80060 17928 ft 385 kts 226°
2026-05-07 17:32 33.70793 -6.82287 17473 ft 380 kts 225°
2026-05-07 17:32 33.68917 -6.84474 17228 ft 375 kts 225°
2026-05-07 17:32 33.67031 -6.86671 16976 ft 379 kts 225°
2026-05-07 17:32 33.65068 -6.88791 16715 ft 379 kts 218°
2026-05-07 17:33 33.62893 -6.90543 16046 ft 378 kts 214°
2026-05-07 17:33 33.60665 -6.92237 15248 ft 379 kts 213°
2026-05-07 17:33 33.58426 -6.93931 14504 ft 378 kts 213°
2026-05-07 17:33 33.56219 -6.95610 13834 ft 371 kts 213°
2026-05-07 17:34 33.54048 -6.97272 12875 ft 372 kts 213°
2026-05-07 17:34 33.51870 -6.98948 12218 ft 369 kts 213°
2026-05-07 17:34 33.49763 -7.00575 12121 ft 351 kts 213°
2026-05-07 17:34 33.47758 -7.02125 12012 ft 334 kts 213°
2026-05-07 17:35 33.45849 -7.03602 11921 ft 320 kts 213°
2026-05-07 17:35 33.44044 -7.04999 11842 ft 306 kts 213°
2026-05-07 17:35 33.42292 -7.06354 11752 ft 294 kts 213°
2026-05-07 17:35 33.40608 -7.07656 11660 ft 283 kts 213°
2026-05-07 17:36 33.38987 -7.08910 11602 ft 271 kts 213°
2026-05-07 17:36 33.37432 -7.10111 11524 ft 261 kts 213°
2026-05-07 17:36 33.35923 -7.11276 11392 ft 253 kts 213°
2026-05-07 17:36 33.34468 -7.12400 11269 ft 246 kts 213°
2026-05-07 17:37 33.33000 -7.13533 10638 ft 259 kts 213°
2026-05-07 17:37 33.31467 -7.14717 10196 ft 264 kts 213°
2026-05-07 17:37 33.29935 -7.15896 9832 ft 265 kts 213°
2026-05-07 17:37 33.28378 -7.17096 9333 ft 269 kts 213°
2026-05-07 17:38 33.26799 -7.18314 8916 ft 270 kts 213°
2026-05-07 17:38 33.25216 -7.19534 8545 ft 270 kts 213°
2026-05-07 17:38 33.23644 -7.20745 8165 ft 272 kts 212°
2026-05-07 17:38 33.22060 -7.21963 7865 ft 270 kts 213°
2026-05-07 17:39 33.20503 -7.23161 7658 ft 264 kts 213°
2026-05-07 17:39 33.18952 -7.24353 7238 ft 268 kts 212°
2026-05-07 17:39 33.17386 -7.25555 6917 ft 267 kts 212°
2026-05-07 17:39 33.15894 -7.26893 6499 ft 272 kts 229°
2026-05-07 17:40 33.14990 -7.28855 6224 ft 271 kts 250°
2026-05-07 17:40 33.14531 -7.31052 5876 ft 272 kts 258°
2026-05-07 17:40 33.14209 -7.33259 5626 ft 269 kts 259°
2026-05-07 17:40 33.13903 -7.35446 5252 ft 271 kts 259°
2026-05-07 17:41 33.13583 -7.37663 4936 ft 270 kts 260°
2026-05-07 17:41 33.13252 -7.39871 4692 ft 267 kts 259°
2026-05-07 17:41 33.12919 -7.42027 4547 ft 260 kts 260°
2026-05-07 17:41 33.12592 -7.44108 4474 ft 251 kts 260°
2026-05-07 17:42 33.12276 -7.46116 4395 ft 242 kts 261°
2026-05-07 17:42 33.11972 -7.48060 4320 ft 233 kts 263°
2026-05-07 17:42 33.12151 -7.49905 4175 ft 220 kts 302°
2026-05-07 17:42 33.13212 -7.51052 4106 ft 209 kts 340°
2026-05-07 17:43 33.14608 -7.51565 4050 ft 210 kts 344°
2026-05-07 17:43 33.16019 -7.52069 3972 ft 213 kts 344°
2026-05-07 17:43 33.17452 -7.52571 3865 ft 215 kts 344°
2026-05-07 17:43 33.18862 -7.53059 3815 ft 208 kts 345°
2026-05-07 17:44 33.20219 -7.53526 3668 ft 197 kts 346°
2026-05-07 17:44 33.21510 -7.53970 3427 ft 189 kts 346°
2026-05-07 17:44 33.22758 -7.54400 3180 ft 184 kts 346°
2026-05-07 17:44 33.23969 -7.54816 2940 ft 178 kts 346°
2026-05-07 17:45 33.25137 -7.55218 2709 ft 174 kts 347°
2026-05-07 17:45 33.26287 -7.55613 2478 ft 169 kts 347°
2026-05-07 17:45 33.27399 -7.55997 2261 ft 163 kts 347°
2026-05-07 17:45 33.28456 -7.56360 2048 ft 153 kts 346°
2026-05-07 17:46 33.29464 -7.56707 1856 ft 147 kts 346°
2026-05-07 17:46 33.30429 -7.57039 1653 ft 144 kts 346°
2026-05-07 17:46 33.31387 -7.57369 1458 ft 142 kts 346°
2026-05-07 17:46 33.32315 -7.57689 1259 ft 137 kts 345°
2026-05-07 17:47 33.33215 -7.58009 1052 ft 135 kts 346°
2026-05-07 17:47 33.34140 -7.58322 889 ft 141 kts 346°
2026-05-07 17:47 33.35102 -7.58648 701 ft 141 kts 346°
2026-05-07 17:47 33.35970 -7.58943 650 ft 118 kts 345°
2026-05-07 17:48 33.36611 -7.59165 651 ft 74 kts 343°
2026-05-07 17:48 33.36971 -7.59287 651 ft 37 kts 343°
2026-05-07 17:48 33.37203 -7.59370 654 ft 32 kts 337°
2026-05-07 17:48 33.37404 -7.59437 656 ft 29 kts 345°
2026-05-07 17:49 33.37593 -7.59499 652 ft 27 kts 343°
2026-05-07 17:49 33.37724 -7.59475 650 ft 19 kts 68°
2026-05-07 17:49 33.37760 -7.59325 650 ft 18 kts 75°
2026-05-07 17:49 33.37797 -7.59173 644 ft 20 kts 72°
2026-05-07 17:50 33.37835 -7.59017 648 ft 19 kts 73°
2026-05-07 17:50 33.37873 -7.58866 651 ft 19 kts 74°
2026-05-07 17:50 33.37908 -7.58721 654 ft 15 kts 73°
2026-05-07 17:50 33.37885 -7.58609 652 ft 14 kts 129°
2026-05-07 17:51 33.37824 -7.58519 652 ft 14 kts 128°
2026-05-07 17:51 33.37746 -7.58466 655 ft 13 kts 165°
2026-05-07 17:51 33.37664 -7.58427 652 ft 13 kts 134°
2026-05-07 17:51 33.37620 -7.58343 653 ft 7 kts 122°
2026-05-07 17:52 33.37615 -7.58332 652 ft 1 kts 122°
2026-05-07 17:52 33.37613 -7.58329 652 ft 0 kts 122°